Wednesday, January 28, 2015
04:12 UTC
  |  Log In   |  Register Free
Airport Search:

Lawrence Smith Memorial Airport
(KLRY)

Lawrence Smith Memorial Airport Diagram
No Airport Diagram Available

FAA data valid effective January 08, 2015 - March 05, 2015 (unless otherwise noted).

 
 
 
 
 
 
 
 
 
 
 
 
 
 

Current Aviation Weather for Lawrence Smith Memorial Airport (KLRY)

METAR data is unavailable for LRY. The nearest METAR location is at KLXT (21 nm NW from LRY).

The most recent METAR observation for KLXT was updated at: 0411
METAR Summary (Translated METAR)
KLXT
280353Z AUTO 12008KT 10SM CLR 06/M01 A3009 RMK AO2 SLP195 T00561006
(21 nm NW from KLRY)
KOJC
280353Z AUTO 11008KT 10SM CLR 06/M01 A3006 RMK AO2 SLP183 T00611006
(23.3 nm NW from KLRY)
TAF
No TAF information found within 50 nm of KLXT
  Airport Weather Conditions for KLRY

Current weather conditions are
not available for LRY


The nearest NOAA weather station
is at LXT, (21 nm NW from LRY)
  
 Current Weather at LXT
43° F
Fair
Southeast winds at 8.1 mph
LXT NOAA Radar

Pressure: 30.10 in
Humidity: 63%
Wind: Southeast at 8.1 MPH (7 KT)
Dew Point: 30.9°F
Visibility: 10.00 mi


Airport Weather Forecast for KLRY

Translated METAR and TAF for KLXT
Translated METAR for KLXT (0413 UTC 28 January 2015)
found at http://aviationweather.gov/adds/metars/
 
METAR text: KLXT 280353Z AUTO 12008KT 10SM CLR 06/M01 A3009 RMK AO2 SLP195 T00561006
Conditions at: KLXT (LEES SUMMIT MUNI, MO, US) observed 0353 UTC 28 January 2015
Temperature: 5.6°C (42°F)
Dewpoint: -0.6°C (31°F) [RH = 64%]
Pressure (altimeter): 30.09 inches Hg (1019.0 mb)
[Sea-level pressure: 1019.5 mb]
Winds: from the ESE (120 degrees) at 9 MPH (8 knots; 4.2 m/s)
Visibility: 10 or more miles (16+ km)
Ceiling: at least 12,000 feet AGL
Clouds: sky clear below 12,000 feet AGL
Weather: automated observation with no human augmentation;
there may or may not be significant weather present at this time
Translated TAF for KLXT

There is no translated TAF available for this airport

Find All Airport Services Find A Hotel Find A Rental Car Find A Golf Course Find A Restaurant $100 Hamburger



FBO's on the Field
FBO Company Facility Photos Services Transportation Aviation Fuel Prices: Prices include tax
Catering Weather Repair Courtesy Rental Type 100LL JetA JetA+ MOGAS 8087
 
City of Harrisonville

This FBO has not yet been rated
FS:Phillips 66
Last Updated: Jan-08
Login to update fuel prices
SS:
Contact City of HarrisonvilleMore FBO Information
 
Add another FBO Facility Photos Catering Weather Repair Courtesy Rental Type 100LL JetA JetA+ MOGAS 8087
Services Transportation Aviation Fuel Prices: Prices include tax


model-print
model-print
model-print
model-print